Weather in Turinskaya Sloboda

Russia / Sverdlovsk Oblast     57°37′05″N   64°23′14″E
temp.,
°C
wind,
m/s
gust,
m/s
humid.,
%
clouds,
%
prec.,
mm/h
press.,
hPa
HPBL,
m
24 july, sat
sat2423:00+18nne2373100 0.0 100367
02:00+17nne2471100 0.0 1004114
05:00+15ne2282100 0.0 100441
08:00+16n1282100 0.1 100498
11:00+19ese216977 0.1 1004494
14:00+22ese225399 0.0 10041471
17:00+22se215593 0.0 1005780
20:00+20s227395 0.0 100544
25 july, sun
sun2523:00+16s2288100 0.0 100633
02:00+15sw2292100 0.0 100623
05:00+15wnw238169 0.0 100677
08:00+18nw476854 0.0 1007358
11:00+22nnw665117 0.0 10081381
14:00+17nw6871100 1.2 1010647
17:00+14nnw31087100 2.6 1012441
20:00+15wnw378266 0.1 1012175
26 july, mon
mon2623:00+11nw337017 0.1 101344
02:00+13nw4106199 0.0 1014429
05:00+9nw410742 0.0 1015258
08:00+14nw475863 0.0 1016542
11:00+15wnw5853100 0.0 1015799
14:00+18wnw583944 0.0 10152153
17:00+16nw584986 0.0 10141137
20:00+16nw3653100 0.0 1014201
27 july, tue
tue2723:00+14w4105864 0.0 1014360
02:00+11w397616 0.0 1014209
05:00+9wsw37857 0.0 1013141
08:00+16wsw466298 0.0 1012472
11:00+17w6766100 0.1 10101226
14:00+13w41095100 1.8 1010691
17:00+16wnw578749 3.3 1009858
20:00+14wnw239011 1.0 100957
28 july, wed
wed2823:00+10nnw229449 1.1 101029
02:00+11nw259348 0.0 1010113
05:00+10nw3691100 0.0 1011159
08:00+11wnw3684100 0.0 1012230
11:00+17nw354323 0.0 10121875
14:00+19wnw453897 0.0 10112166
17:00+20wsw3537100 0.0 10102200
20:00+16sw3554100 0.0 1010114